Location: Strawberry
(45.6646°N, 111.9596°W)
Time: 10:12:32
(UTC+00:00)

MOZHAYETS 4 - Visible Passes

Search period start: 26 November 2022 00:00
Search period end: 06 December 2022 00:00
Orbit: 659 x 678 km, 98.2° (Epoch: 25 November)

Date Brightness Start Highest point End Pass type
(mag) Time Alt. Az. Time Alt. Az. Time Alt. Az.
26 Nov 10.3 00:27:30 10° NNW 00:30:08 15° WNW 00:32:47 10° W visible
29 Nov 10.3 00:27:12 10° NNW 00:29:53 16° WNW 00:32:34 10° W visible
02 Dec 10.3 00:26:53 10° NNW 00:29:37 16° WNW 00:32:21 10° W visible
05 Dec 10.3 00:26:35 10° NNW 00:29:21 16° WNW 00:32:07 10° W visible
